Weather History for Cairns Airport, Queensland

Change the Weather History Date:

Tuesday, October 18, 2011

  Actual Average Record
Temperature  
Mean Temperature 74 °F -  
Max Temperature 79 °F 86 °F - ()
Min Temperature 69 °F 71 °F - ()
Cooling Degree Days 9    
Growing Degree Days 24 (Base 50)    
Moisture  
Dew Point 71 °F    
Average Humidity 89    
Maximum Humidity 100    
Minimum Humidity 69    
Precipitation  
Precipitation 7.05 in 0.10 in - ()
Sea Level Pressure  
Sea Level Pressure 30.03 in    
Wind  
Wind Speed 12 mph ()    
Max Wind Speed 17 mph    
Max Gust Speed 31 mph    
Visibility 4.1 miles    
Events Rain , Thunderstorm    
T = Trace of Precipitation, MM = Missing Value Source: Averaged Metar Reports

Daily Weather History Graph

Daily Weather History Graph

Search for Another Location

Airport:

Trip Planner

Search our weather history database for the weather conditions in past years. The results will help you decide how hot, cold, wet, or windy it might be!

Date:

Astronomy

Oct. 18, 2011 Rise Set
Actual Time 5:47 AM AEST 6:17 PM AEST
Civil Twilight 5:25 AM AEST 6:39 PM AEST
Nautical Twilight 4:59 AM AEST 7:05 PM AEST
Astronomical Twilight 4:33 AM AEST 7:31 PM AEST
Moon 11:24 PM AEST (10/18) 9:59 AM AEST (10/18)
Length of Visible Light 13h 14m
Length of Day
12h 30m
Waning Gibbous, 70% of the Moon is Illuminated
Oct 18
Waning Gibbous
Oct 20
Last Quarter
Oct 27
New
Nov 3
First Quarter
Nov 11
Full

Hourly Weather History & Observations

Time (AEST) Temp. Dew Point Humidity Pressure Visibility Wind Dir Wind Speed Gust Speed Precip Events Conditions
12:00 AM 79 °F 71 °F 69% 30.04 in 9 mi SSE 15.0 mph - -   Partly Cloudy
12:00 AM 78.8 °F 69.8 °F 74% 30.04 in 6.2 mi SSE 15.0 mph - N/A   Mostly Cloudy
12:30 AM 77.0 °F 71.6 °F 83% 30.01 in 6.2 mi SSE 15.0 mph - N/A Rain Light Rain Showers
1:00 AM 76 °F 72 °F 85% 30.01 in - SSE 15.0 mph - -  
1:00 AM 75.2 °F 71.6 °F 89% 30.01 in 6.2 mi SSE 15.0 mph - N/A   Mostly Cloudy
1:09 AM 75.2 °F 71.6 °F 89% 30.01 in 4.3 mi South 11.5 mph - N/A Rain Light Rain Showers
1:30 AM 75.2 °F 71.6 °F 89% 29.98 in 5.0 mi SSE 13.8 mph - N/A Rain Light Rain Showers
1:58 AM 71.6 °F 71.6 °F 100% 30.01 in 1.2 mi South 15.0 mph - N/A Rain Rain Showers
2:00 AM 71.6 °F 71.6 °F 100% 29.98 in 0.7 mi South 13.8 mph - N/A Rain Rain Showers
2:30 AM 73.4 °F 71.6 °F 94% 29.98 in 3.7 mi SE 12.7 mph - N/A Rain Light Rain Showers
2:42 AM 73.4 °F 71.6 °F 94% 29.98 in 5.0 mi SSE 11.5 mph - N/A   Mostly Cloudy
3:00 AM 75 °F 71 °F 85% 29.99 in 6 mi South 12.7 mph - - Rain Light Rain Showers
3:00 AM 75.2 °F 71.6 °F 89% 29.98 in 6.2 mi South 12.7 mph - N/A   Mostly Cloudy
3:30 AM 75.2 °F 71.6 °F 89% 29.98 in 6.2 mi South 11.5 mph - N/A   Mostly Cloudy
4:00 AM 75 °F 71 °F 83% 29.99 in - South 10.4 mph - -  
4:00 AM 75.2 °F 71.6 °F 89% 29.98 in 6.2 mi South 10.4 mph - N/A   Mostly Cloudy
4:30 AM 75.2 °F 71.6 °F 89% 29.98 in 3.7 mi SSE 10.4 mph - N/A Rain Light Rain Showers
5:00 AM 75.2 °F 71.6 °F 89% 29.98 in 5.0 mi South 11.5 mph - N/A Rain Light Rain Showers
5:30 AM 75.2 °F 71.6 °F 89% 29.98 in 3.7 mi SSE 10.4 mph - N/A   Mostly Cloudy
6:00 AM 75 °F 72 °F 86% 30.01 in 7 mi SSE 11.5 mph - - Rain Light Rain Showers
6:00 AM 75.2 °F 71.6 °F 89% 30.01 in 3.7 mi SSE 11.5 mph - N/A   Mostly Cloudy
6:17 AM 73.4 °F 69.8 °F 88% 30.01 in 3.1 mi South 13.8 mph - N/A Rain Rain Showers
6:18 AM 73.4 °F 69.8 °F 88% 30.01 in - North - - N/A Rain Rain Showers
6:30 AM 73.4 °F 69.8 °F 88% 30.01 in 3.1 mi South 12.7 mph - N/A Rain Rain Showers
6:43 AM 73.4 °F 71.6 °F 94% 30.01 in 3.1 mi South 11.5 mph - N/A Rain Rain Showers
7:00 AM 74 °F 72 °F 90% 30.03 in - South 11.5 mph - -  
7:00 AM 73.4 °F 71.6 °F 94% 30.01 in 3.7 mi South 11.5 mph - N/A Rain Light Rain Showers
7:07 AM 75.2 °F 71.6 °F 89% 30.04 in 2.5 mi South 10.4 mph - N/A Rain Rain Showers
7:15 AM 73.4 °F 71.6 °F 94% 30.04 in 3.1 mi South 10.4 mph - N/A Rain Light Rain Showers
7:30 AM 75.2 °F 71.6 °F 89% 30.04 in 6.2 mi SSE 13.8 mph - N/A   Mostly Cloudy
8:00 AM 77.0 °F 73.4 °F 89% 30.04 in 6.2 mi SSE 13.8 mph - N/A Rain Light Rain Showers
8:30 AM 77.0 °F 71.6 °F 83% 30.06 in 5.6 mi South 13.8 mph - N/A   Mostly Cloudy
8:38 AM 75.2 °F 71.6 °F 89% 30.06 in 3.7 mi South 12.7 mph - N/A Rain Light Rain Showers
9:00 AM 76 °F 72 °F 85% 30.07 in 6 mi South 10.4 mph - - Rain Light Rain Showers
9:00 AM 75.2 °F 71.6 °F 89% 30.06 in 6.2 mi South 10.4 mph - N/A Rain Light Rain Showers
9:30 AM 77.0 °F 71.6 °F 83% 30.06 in 5.0 mi SSE 13.8 mph - N/A Rain Light Rain Showers
10:00 AM 78 °F 71 °F 75% 30.09 in - SSE 17.3 mph - -  
10:00 AM 78.8 °F 71.6 °F 78% 30.06 in 5.0 mi SSE 17.3 mph - N/A   Mostly Cloudy
10:30 AM 78.8 °F 71.6 °F 78% 30.06 in 6.2 mi SSE 17.3 mph - N/A Rain Light Rain Showers
11:00 AM 77.0 °F 69.8 °F 78% 30.06 in 6.2 mi South 12.7 mph - N/A Rain Rain Showers
11:09 AM 75.2 °F 69.8 °F 83% 30.06 in 1.9 mi South 16.1 mph - N/A Rain Rain Showers
11:22 AM 73.4 °F 71.6 °F 94% 30.06 in 1.2 mi SSE 13.8 mph - N/A Rain Heavy Rain Showers
11:30 AM 73.4 °F 71.6 °F 94% 30.06 in 1.9 mi SSE 11.5 mph - N/A Rain Heavy Rain Showers
12:00 PM 71 °F 70 °F 95% 30.07 in 2 mi South 17.3 mph - - Rain Heavy Rain Showers
12:00 PM 71.6 °F 69.8 °F 94% 30.06 in 1.9 mi South 17.3 mph - N/A Rain Heavy Rain Showers
12:19 PM 69.8 °F 69.8 °F 100% 30.06 in 0.9 mi South 17.3 mph - N/A Rain Heavy Rain Showers
12:30 PM 69.8 °F 69.8 °F 100% 30.06 in 0.4 mi South 16.1 mph - N/A Rain Heavy Rain Showers
12:42 PM 69.8 °F 69.8 °F 100% 30.04 in 0.4 mi SSW 16.1 mph - N/A Rain Heavy Rain Showers
12:54 PM 71.6 °F 69.8 °F 94% 30.04 in 0.4 mi South 17.3 mph 31.1 mph N/A Rain Heavy Rain Showers
1:00 PM 72 °F 70 °F 92% 30.04 in - South 15.0 mph - -  
1:00 PM 71.6 °F 69.8 °F 94% 30.04 in 0.6 mi South 15.0 mph 31.1 mph N/A Rain Heavy Rain Showers
1:15 PM 73.4 °F 69.8 °F 88% 30.01 in 4.3 mi South 13.8 mph - N/A Rain Rain Showers
1:30 PM 73.4 °F 71.6 °F 94% 30.01 in 3.7 mi South 12.7 mph - N/A Rain Rain Showers
2:00 PM 75.2 °F 71.6 °F 89% 30.01 in 4.3 mi SSE 13.8 mph - N/A Rain Rain Showers
2:30 PM 75.2 °F 73.4 °F 94% 30.01 in 3.7 mi South 11.5 mph - N/A Rain Rain Showers
3:00 PM 76 °F 74 °F 90% 30.01 in 6 mi SSE 11.5 mph - - Rain Light Rain Showers
3:00 PM 75.2 °F 73.4 °F 94% 30.01 in 6.2 mi SSE 11.5 mph - N/A Rain Light Rain Showers
3:30 PM 77.0 °F 73.4 °F 89% 29.98 in 5.0 mi South 10.4 mph - N/A Rain Light Rain Showers
4:00 PM 76 °F 73 °F 86% 30.01 in - South 10.4 mph - -  
4:00 PM 77.0 °F 73.4 °F 89% 29.98 in 5.0 mi South 10.4 mph - N/A Rain Rain Showers
4:30 PM 77.0 °F 73.4 °F 89% 29.98 in 6.2 mi South 10.4 mph - N/A   Mostly Cloudy
5:00 PM 75.2 °F 71.6 °F 89% 29.98 in 5.6 mi SSE 11.5 mph - N/A   Mostly Cloudy
5:30 PM 75.2 °F 71.6 °F 89% 29.98 in 5.6 mi South 10.4 mph - N/A   Mostly Cloudy
6:00 PM 76 °F 72 °F 82% 30.01 in - South 11.5 mph - -   Overcast
6:00 PM 75.2 °F 71.6 °F 89% 30.01 in 5.6 mi South 11.5 mph - N/A Rain Light Rain Showers
6:30 PM 75.2 °F 71.6 °F 89% 30.01 in 5.6 mi SSE 12.7 mph - N/A   Mostly Cloudy
7:00 PM 75 °F 72 °F 86% 30.04 in - South 10.4 mph - -  
7:00 PM 75.2 °F 71.6 °F 89% 30.04 in 5.0 mi South 10.4 mph - N/A Rain Light Rain Showers
7:30 PM 73.4 °F 71.6 °F 94% 30.04 in 2.5 mi South 11.5 mph - N/A Rain Light Rain Showers
7:54 PM 71.6 °F 68.0 °F 88% 30.04 in 5.0 mi South 15.0 mph - N/A Rain , Thunderstorm Light Thunderstorms and Rain
8:00 PM 71.6 °F 69.8 °F 94% 30.04 in 5.6 mi South 13.8 mph - N/A Rain , Thunderstorm Light Thunderstorms and Rain
8:30 PM 73.4 °F 69.8 °F 88% 30.04 in 3.7 mi South 9.2 mph - N/A Rain Light Rain Showers
8:35 PM 73.4 °F 71.6 °F 94% 30.04 in 0.6 mi South 9.2 mph - N/A Rain , Thunderstorm Light Thunderstorms and Rain
9:00 PM 73 °F 71 °F 93% 30.05 in 2 mi SSE 10.4 mph - - Rain Light Rain
9:00 PM 73.4 °F 71.6 °F 94% 30.04 in 2.5 mi SSE 10.4 mph - N/A Rain Light Rain Showers
9:25 PM 73.4 °F 71.6 °F 94% 30.04 in 0.6 mi SSE 8.1 mph - N/A Rain Rain Showers
9:30 PM 73.4 °F 71.6 °F 94% 30.04 in 0.6 mi SSE 12.7 mph - N/A Rain Rain Showers
9:53 PM 71.6 °F 69.8 °F 94% 30.06 in 6.2 mi SSE 15.0 mph - N/A   Mostly Cloudy
10:00 PM 73 °F 70 °F 86% 30.07 in - South 12.7 mph - -  
10:00 PM 73.4 °F 69.8 °F 88% 30.06 in 6.2 mi South 12.7 mph - N/A   Mostly Cloudy
10:30 PM 73.4 °F 71.6 °F 94% 30.06 in 6.2 mi SSE 11.5 mph - N/A   Mostly Cloudy
10:38 PM 73.4 °F 71.6 °F 94% 30.04 in 6.2 mi SSE 12.7 mph - N/A Rain , Thunderstorm Light Thunderstorms and Rain
11:00 PM 73.4 °F 69.8 °F 88% 30.04 in 2.5 mi South 11.5 mph - N/A Rain Light Rain Showers
11:14 PM 73.4 °F 71.6 °F 94% 30.04 in 0.6 mi South 13.8 mph - N/A Rain , Thunderstorm Light Thunderstorms and Rain
11:30 PM 73.4 °F 71.6 °F 94% 30.04 in 1.9 mi South 12.7 mph - N/A Rain Light Rain Showers